Location: Rodanthe
(35.5920°N, 75.4670°W)
Time: 11:14:16
(UTC-04:00)

Daily predictions for brighter satellites

Satellite Brightness Start Highest point End
(mag) Time Altitude Azimuth Time Altitude Azimuth Time Altitude Azimuth
Cosmos 1758 3.7 19:41:39 10° SSE 19:45:23 41° E 19:49:08 10° NNE
Resurs 01 Rocket 2.5 19:42:51 10° SE 19:46:39 29° ENE 19:50:28 10° N
Cosmos 1766 3.8 19:44:58 10° SSW 19:48:48 63° W 19:52:40 10° N
Cosmos 1605 Rocket 4.0 19:43:18 10° S 19:49:31 70° E 19:55:51 10° NNE
Cosmos 1867 3.6 19:44:39 10° SSW 19:50:05 89° ESE 19:55:35 10° NNE
Cosmos 1953 2.6 19:47:06 10° SSE 19:50:58 44° E 19:54:50 10° NNE
OAO 2 Rocket 4.2 19:47:46 10° SW 19:52:21 33° SSE 19:57:01 10° E
In-Cosmos 22 4.0 19:49:08 10° N 19:54:25 70° E 19:59:41 10° SSE
Cosmos 1544 3.0 19:52:54 10° S 19:56:32 74° E 20:00:12 10° N
GPS 2-05 Rocket1 2.8 19:53:11 10° W 19:56:43 87° S 20:00:09 11° E
SeaSat 1 2.9 19:54:30 10° SE 19:59:07 42° ENE 20:03:44 10° N
FENGYUN 3A 3.6 19:58:23 10° SSE 20:03:45 73° ENE 20:09:08 10° N
Cosmos 1125 Rocket 3.6 19:59:32 10° SSW 20:04:44 85° WNW 20:09:59 10° NNE
Cosmos 2123 Rocket 4.2 20:01:49 10° N 20:08:08 80° W 20:14:22 10° S
Cosmos 1048 Rocket 4.1 20:05:12 10° N 20:10:14 54° ENE 20:15:14 10° SSE
Lacrosse 5 rocket 2.5 20:09:09 10° NNW 20:12:23 24° NE 20:14:25 16° E
CZ-2D R/B 3.8 20:09:37 10° SE 20:13:13 39° ENE 20:16:52 10° N
Cosmos 1833 Rocket 2.9 20:08:26 10° N 20:13:56 52° ENE 20:19:23 10° SE
Helios 1B rocket 3.2 20:11:40 10° NE 20:15:19 30° E 20:18:55 10° SSE
Cosmos 1805 3.9 20:12:12 10° SSW 20:16:03 59° W 20:19:55 10° N
Cosmos 1408 Rocket 3.8 20:13:37 10° N 20:17:57 47° E 20:22:13 10° SSE
HJ-1C 3.6 20:15:18 10° S 20:18:40 74° W 20:22:06 10° NNW
ISS -2.2 20:15:42 10° WSW 20:18:42 34° NW 20:21:45 10° NNE
Cosmos 1802 Rocket 4.4 20:14:01 10° SSE 20:19:32 37° E 20:25:08 10° NNE
Resurs 1-3 3.6 20:15:20 10° SSE 20:19:37 58° ENE 20:23:56 10° N
ATLAS 5 CENTAUR R/B 2.1 20:16:39 10° SW 20:21:15 70° WNW 20:26:15 10° NNE
Cosmos 2278 Rocket 4.5 20:18:23 10° WSW 20:23:08 27° WNW 20:27:56 10° N
Meteor 1-21 Rocket 4.3 20:21:41 10° N 20:27:34 79° E 20:33:29 10° SSE
Cosmos 1733 3.2 20:24:26 10° S 20:28:12 58° E 20:32:02 10° NNE
MINOTAUR R/B 4.3 20:27:30 10° S 20:30:19 60° ESE 20:33:11 10° NNE
DASH 4.1 20:11:11 10° WSW 20:30:48 52° S 20:33:40 23° ESE
Cosmos 1842 Rocket 4.4 20:28:35 19° SE 20:30:49 29° E 20:34:36 10° NNE
Cosmos 1076 Rocket 3.6 20:29:14 10° N 20:33:29 75° W 20:37:42 10° S
Cosmos 1470 2.6 20:31:10 10° S 20:35:08 78° E 20:39:06 10° N
Cosmos 1459 Rocket 3.9 20:31:16 10° S 20:37:26 65° E 20:43:33 10° NNE
Helios 1A 3.2 20:36:03 24° SE 20:38:18 50° ENE 20:42:21 10° N
Cosmos 2061 Rocket 4.0 20:32:13 10° S 20:38:29 61° E 20:44:48 10° NNE
Meteor 1-29 3.1 20:39:08 10° NNE 20:42:31 49° E 20:43:56 29° SSE
H-2A R/B 3.7 20:42:12 10° S 20:45:58 48° W 20:49:48 10° NNW
Cosmos 2173 Rocket 3.9 20:40:45 10° S 20:46:53 77° E 20:53:10 10° N
Timation 2 Rocket 3.8 20:40:55 10° NNW 20:47:11 87° ENE 20:51:54 17° SSE
Cosmos 158 Rocket 4.2 20:47:26 10° NNW 20:52:35 69° WSW 20:57:32 12° S
SAR-Lupe-4 3.4 20:51:47 40° SSE 20:52:59 85° ENE 20:56:36 10° N
USA 215 3.4 20:46:56 10° NE 20:53:10 46° SE 20:59:22 10° SSW
COSMOS 2487 3.8 20:50:29 10° NNW 20:53:50 39° WSW 20:56:40 13° S
Cosmos 2251 Rocket 4.0 20:49:58 10° N 20:55:02 41° ENE 20:56:03 37° E
Cosmos 1340 Rocket 2.6 20:52:12 10° N 20:56:13 87° E 20:57:45 36° S
Cosmos 2082 Rocket 2.7 20:50:44 10° NNW 20:56:19 59° WSW 21:01:39 11° S
Cosmos 1356 Rocket 4.1 20:54:20 10° N 20:57:28 36° NE 20:57:28 36° NE
Cosmos-2242 3.9 20:55:54 10° SSW 21:00:00 48° W 21:04:08 10° N
BREEZE-M DEB (TANK) 3.6 21:01:24 10° WSW 21:04:45 61° NNW 21:15:39 10° ENE
Meteor 1-16 Rocket 4.2 21:01:13 10° S 21:07:02 75° E 21:12:58 10° NNE
SAR-Lupe-1 4.4 21:11:15 56° SW 21:11:40 62° W 21:15:13 10° NNW
GP-B 4.2 21:07:56 10° SSW 21:12:09 43° W 21:16:23 10° NNW
Meteor 1-11 4.2 21:08:32 10° N 21:14:00 55° E 21:14:31 53° E
Gblst 52 Del rocket 4.3 21:09:20 10° SW 21:15:27 76° NW 21:19:15 21° NE
SL-14 R/B 4.0 21:12:32 10° N 21:15:15 42° NNE 21:15:15 42° NNE
Cosmos 2016 Rocket 4.0 21:13:04 10° S 21:19:18 81° W 21:25:28 10° N
Cosmos 494 Rocket 3.8 21:14:29 10° NNW 21:19:36 72° ENE 21:19:57 69° ESE
Resurs 01 Rocket 4.0 21:19:44 10° SW 21:23:05 21° W 21:26:28 10° NW
Cosmos 1328 4.3 21:21:52 10° N 21:25:05 56° NNW 21:25:05 56° NNW
CZ-4C R/B 2.6 21:23:05 10° SSW 21:33:11 13° NE 21:33:52 10° NE
Cosmos 1725 Rocket 3.8 21:26:22 30° S 21:29:42 83° E 21:35:55 10° N
Envisat 3.3 21:31:29 46° SSW 21:32:49 64° W 21:37:52 10° NNW
Meteor 2-1 Rocket 4.1 21:35:33 74° ENE 21:35:33 74° ENE 21:40:59 10° NNE
OAO 2 Rocket 3.6 21:31:41 10° WSW 21:36:08 63° SW 21:36:08 63° SW
Cosmos 1500 Rocket 4.1 21:33:09 10° NNW 21:36:54 56° WNW 21:36:54 56° WNW
Cosmos 1939 Rocket 3.9 21:41:39 46° WNW 21:41:39 46° WNW 21:45:01 10° NNW
ERS-1 Rocket 3.3 21:43:13 58° N 21:43:13 58° N 21:47:16 10° N
Cosmos 2369 Rocket 2.1 21:36:57 10° SSW 21:42:50 82° N 21:48:15 10° NNE
Lacrosse 5 rocket 3.5 21:48:17 10° WNW 21:50:09 22° W 21:50:09 22° W
H-2A R/B 4.1 21:59:46 18° NNE 21:59:46 18° NNE 22:01:20 10° N
Tsikada Rocket 4.0 21:51:03 10° N 21:57:17 77° W 21:57:31 76° WSW
USA 215 4.1 22:29:56 10° NNE 22:36:06 46° NW 22:42:14 10° WSW
